Regional Weather Roundup
Issued by NWS Newport/Morehead, NC

Current Version | Previous Version | Graphics & Text | Print | Product List | Glossary On
Versions: 1 2 3 4 5 6 7 8 9 10 11 12 13 14 15 16 17 18 19 20 21 22 23 24 25 26 27 28 29 30 31 32 33 34 35 36 37 38 39 40 41 42 43 44 45 46 47 48 49 50
000
ASUS42 KMHX 241724
RWRMHX
WEATHER ROUNDUP FOR EASTERN NORTH CAROLINA
NATIONAL WEATHER SERVICE NEWPORT/MOREHEAD CITY NC
100 PM EDT FRI APR 24 2015

NOTE: "FAIR" INDICATES FEW OR NO CLOUDS BELOW 12,000 FEET
WITH NO SIGNIFICANT WEATHER AND/OR OBSTRUCTIONS TO VISIBILITY

NCZ015>017-031-032-045>047-102-103-241800-
NORTH COAST

CITY           SKY/WX    TMP DP  RH WIND       PRES   REMARKS
EDENTON        SUNNY     60  26  27 NW14G21   30.02F
ELIZABETH CITY SUNNY     59  30  33 W18G24    30.01F
KITTY HAWK     SUNNY     53  37  53 NE9       30.00S
MANTEO         SUNNY     54  38  55 NE8       30.01S

$$

NCZ045>047-081-094-103-104-241800-
CENTRAL COAST

CITY           SKY/WX    TMP DP  RH WIND       PRES   REMARKS
FRISCO         SUNNY     57  39  51 VRB7      30.01S
SWANQUARTER      N/A     63 N/A N/A NW16      29.97S

$$

NCZ095-097-098-100-101-241800-
SOUTHERN COAST

CITY           SKY/WX    TMP DP  RH WIND       PRES   REMARKS
BEAUFORT         N/A     64  31  28 NW12      30.02F
CEDAR ISLAND     N/A     61 N/A N/A NW14G20   30.06S
JACKSONVILLE   SUNNY     64  27  24 N17       30.03F
PINEY ISLAND   SUNNY    N/A N/A N/A NW12      30.02S
WILMINGTON     SUNNY     65  27  23 NW12G18   30.03F


$$

NCZ011>013-027>030-043-044-078>080-089-090>093-098-241800-
COASTAL PLAIN

CITY           SKY/WX    TMP DP  RH WIND       PRES   REMARKS
AHOSKIE        SUNNY     59  28  31 CALM      30.03F
CLINTON        SUNNY     64  27  24 N9        30.05F
ELIZABETHTOWN  SUNNY     64  23  21 NW10G21   30.04F
GOLDSBORO      MOSUNNY   63  27  25 W12G17    30.01F
GREENVILLE     SUNNY     63  28  27 NW8       30.05F
HAVELOCK       SUNNY     65  27  23 N15G22    30.03F
KENANSVILLE    SUNNY     62  24  23 N7        30.04F
KINSTON        SUNNY     63  25  23 NW13      30.04F
NEW BERN       SUNNY     64  29  26 NW13G18   30.04F
RICHLANDS      SUNNY     64  27  24 N12G20    30.03F
ROCKY MOUNT    SUNNY     62  24  23 VRB5G18   30.04F
WASHINGTON     SUNNY     62  31  31 NW9G18    30.02F
WHITEVILLE     SUNNY     65  26  23 NW3       30.04F

$$

AMZ130-135-150-152-154-156-158-170-250-252-270-ANZ085-086-088-633-658-670-241800-
MARINE OBSERVATIONS

STATION/POSITION TIME  TEMP    WIND        PRES    WAVE   SWELL
                       AIR SEA DIR/SP/G            HT/PER HT/PER
                 (UTC) (F)     (DEG/KT/KT) (MB)    (FT/S) (FT/S)
CHESAPEAKE LIGHT 1700   49     310/ 16/ 17 1016.6
64 E VA BEACH    1650   48 59  330/ 21/ 27 1014.9    6/ 6   2/14
DUCK             1700   49 55   20/ 12/ 13 1015.1
2 E DUCK         1611      53                N/A     5/ 5   2/13
10 NE DUCK       NOT AVBL
OREGON INLET     1700   51 61   10/ 13/ 17 1016.0
HATTERAS CG      1700   56 64  350/ 14/ 18 1015.7
DIAMOND BUOY     1650   55 73  360/ 12/ 16 1016.2    5/ 6   3/ 6
CAPE LOOKOUT     1700   60     330/ 10/ 12 1016.3
BEAUFORT LAB     1700   60 63   10/  9/ 11 1015.6
27 SE WRIGHTSVLE 1700   56 70   10/ 10/ 14   N/A
5 SE WRIGHTSVLE  1608   59 65  350/  8/ 14 1018.0
225 S CAPE HAT   1650   68 71  350/ 19/ 23 1014.4    7/ 7   3/15
41 SE CHARLESTON 1650   62 72   40/ 16/ 19 1017.3    7/ 7   2/14

$$



USA.gov is the U.S. government's official web portal to all federal, state and local government web resources and services.